Regional Weather Roundup
Issued by NWS

Home | Current Version | Previous Version | Graphics & Text | Print | Product List | Glossary On
Versions: 1 2 3 4 5 6 7 8 9 10 11 12 13 14 15 16 17 18 19 20 21 22 23 24 25 26 27 28 29 30 31 32 33 34 35 36 37 38 39 40 41 42 43 44 45 46 47 48 49 50
000
ASUS43 KMPX 030501
RWRMN
WEATHER ROUNDUP FOR MINNESOTA
NATIONAL WEATHER SERVICE TWIN CITIES/CHANHASSEN MN
1200 AM CDT WED JUN 03 2015


NOTE: "FAIR" INDICATES FEW OR NO CLOUDS BELOW 12,000 FEET WITH NO
SIGNIFICANT WEATHER AND/OR OBSTRUCTIONS TO VISIBILITY. N/A MEANS
CURRENT SKY AND/OR WEATHER CONDITIONS ARE NOT AVAILABLE.

MNZ060>063-068>070-030600-
   Twin Cities Metro

CITY           SKY/WX    TMP DP  RH WIND       PRES   REMARKS
TWIN CITIES    PTCLDY    66  52  60 SE7       29.92F
ST PAUL        CLEAR     64  53  67 SE7       29.92F
CRYSTAL        CLEAR     68  53  58 S10       29.89F
BLAINE         CLEAR     70  54  56 SE13      29.91S
LAKEVILLE      CLEAR     64  52  63 S8        29.92F
EDEN PRAIRIE   CLEAR     66  53  63 S7        29.90F
SOUTH ST PAUL  CLEAR     65  51  60 SE6       29.92F
LAKE ELMO      FAIR      63  52  67 S7        29.94S
$$
MNZ001>005-007-008-013>017-022>024-027-028-030600-
   Northwest Minnesota

CITY           SKY/WX    TMP DP  RH WIND       PRES   REMARKS
BEMIDJI        CLOUDY    63  55  73 SE9       29.77S
HALLOCK        CLOUDY    63  61  94 NE8       29.79R
ROSEAU         CLOUDY    61  55  82 NE8       29.81R HAZE
WARROAD        CLOUDY    57  55  94 E5        29.82R
THIEF RVR FALL CLOUDY    61  59  94 E10G22    29.76F THUNDER
CROOKSTON      TSTM      63  61  94 NE8       29.76R
FOSSTON        CLOUDY    64  55  72 NW6       29.78R
DETROIT LAKES  CLOUDY    70  57  64 S14       29.74F
MOORHEAD       MOCLDY    72  61  68 S20G28    29.66F
PARK RAPIDS    CLOUDY    69  51  52 S15       29.77F
MAHNOMEN       RAIN      67  58  71 S7        29.72S
$$
MNZ006-009>011-018-025>026-030600-
   North Central Minnesota

CITY           SKY/WX    TMP DP  RH WIND       PRES   REMARKS
BAUDETTE       LGT RAIN  59  58  96 E5        29.80F
FLAG ISLAND    CLOUDY    59  57  94 NE6       29.81F
INTL FALLS     CLOUDY    58  55  90 N5        29.89R
WASKISH        CLOUDY    61  57  88 NE6       29.82R
BIG FORK       CLOUDY    64  54  68 S10       29.81F
LONGVILLE      CLOUDY    64  54  68 SE10      29.80F
GRAND RAPIDS   CLOUDY    63  52  67 SE13G21   29.83F THUNDER
CRANE LAKE     RAIN      57  55  94 CALM      29.89S
COOK           LGT RAIN  61  55  82 SE7       29.85F
WALKER         FAIR      65  54  67 SE7       29.78F
$$
MNZ012-019>021-037-030600-
   Northeast Minnesota

CITY           SKY/WX    TMP DP  RH WIND       PRES   REMARKS
DULUTH         PTCLDY    52  41  66 SE8       29.91F
ELY            CLOUDY    63  50  63 CALM      29.91R
HIBBING        LGT RAIN  62  51  67 S9        29.86F
EVELETH        MOCLDY    59  48  67 SE8       29.89F
DULUTH HARBOR  PTCLDY    46  41  81 N5        29.93S
TWO HARBORS    MOCLDY    54  46  76 CALM      29.91S
SILVER BAY     CLOUDY    52  46  82 CALM      29.91S
GRAND MARAIS     N/A     48  41  76 CALM      29.93F
G MARAIS ARPRT CLOUDY    54  34  47 CALM      29.96S
$$
MNZ029>031-032-039>041-046>048-054>057-064-030600-
   West Central Minnesota

CITY           SKY/WX    TMP DP  RH WIND       PRES   REMARKS
FERGUS FALLS   CLOUDY    72  57  60 S21       29.73S
WHEATON        MOCLDY    70  61  73 SE15G23   29.73S
MORRIS         MOCLDY    70  55  60 SE21      29.76F
ALEXANDRIA     MOCLDY    69  54  58 S20       29.80F
ELBOW LAKE     CLOUDY    69  57  65 S22G29    29.75R
WADENA         CLOUDY    70  54  56 S15G24    29.77S
GLENWOOD       PTCLDY    68  55  64 S20G25    29.82S
APPLETON       PTCLDY    72  55  56 S14G23    29.77F
BENSON         PTCLDY    68  54  60 S15G24    29.79F
ORTONVILLE     CLEAR     70  61  73 S10       29.75F
MADISON        PTCLDY    70  57  64 S13       29.78S
WILLMAR        FAIR      68  55  64 SE15G21   29.85S
$$
MNZ033>034-036-042>043-049>051-058-059-030600-
   Central Minnesota

CITY           SKY/WX    TMP DP  RH WIND       PRES   REMARKS
ST CLOUD       PTCLDY    66  52  60 SE14      29.85F
SAUK CENTRE    FAIR      66  54  64 SE12      29.82F
PAYNESVILLE    PTCLDY    65  52  62 SE14      29.84F
AITKIN         CLOUDY    66  54  63 S13G18    29.82F
PINE RIVER     CLOUDY    66  54  63 S10       29.84S
BRAINERD       CLOUDY    68  51  54 S16G22    29.82F
STAPLES        CLOUDY    68  50  52 S13G18    29.80S
LONG PRAIRIE   FAIR      66  52  59 SE13      29.82F
LITTLE FALLS   CLOUDY    66  50  55 SE10G17   29.84S
LITCHFIELD     CLEAR     68  54  60 S8        29.87F
BUFFALO        CLOUDY    67  51  56 S8        29.90S
MAPLE LAKE     CLOUDY    68  55  61 S7        29.89F
$$
MNZ037-044-045-052-053-030600-
   East Central Minnesota

CITY           SKY/WX    TMP DP  RH WIND       PRES   REMARKS
PRINCETON      MOCLDY    66  54  63 SE8       29.88F
MORA           CLOUDY    64  52  63 S8        29.90F
CAMBRIDGE      PTCLDY    66  52  59 SE7       29.88F
RUSH CITY      CLOUDY    64  53  66 SE6       29.91S
MOOSE LAKE     MOCLDY    63  52  67 S7        29.87F
HINCKLEY       CLOUDY    63  54  72 SE6       29.90F
CLOQUET        MOCLDY    48  43  81 SE3       29.90F
MCGREGOR       MOCLDY    64  52  63 SE12      29.86F
$$
MNZ071>073-080-081-089-090-097-098-030600-
   Southwest Minnesota

CITY           SKY/WX    TMP DP  RH WIND       PRES   REMARKS
MONTEVIDEO     PTCLDY    70  55  60 S16G22    29.81S
GRANITE FALLS  PTCLDY    68  56  64 SE17G23   29.84S
CANBY          PTCLDY    71  60  67 S10G18    29.80S
MARSHALL       PTCLDY    68  54  60 S17G23    29.82S
REDWOOD FALLS  PTCLDY    68  55  63 S18G25    29.85F
OLIVIA         PTCLDY    66  54  63 S16G22    29.85R
PIPESTONE      MOCLDY    68  57  68 S16       29.87R
WINDOM         PTCLDY    66  55  68 S16G22    29.89R
WORTHINGTON    PTCLDY    64  54  68 S16G23    29.89R
JACKSON        PTCLDY    64  55  72 S14G21    29.90S
TRACY          PTCLDY    67  57  69 S14G20    29.85S
SLAYTON        PTCLDY    66  56  71 S14G20    29.89R
$$
MNZ065>067-074>077-082>085-091>093-030600-
   South Central Minnesota

CITY           SKY/WX    TMP DP  RH WIND       PRES   REMARKS
MANKATO        MOCLDY    66  52  59 S14G20    29.92S
NEW ULM        CLEAR     64  54  68 S12G17    29.89S
ST JAMES       CLEAR     66  55  68 SE16      29.90S
FAIRMONT       PTCLDY    64  52  63 S15G22    29.90F
GLENCOE        MOCLDY    69  55  62 S7        29.89F
FARIBAULT      CLEAR     64  54  68 S7        29.94S
OWATONNA       CLEAR     64  52  63 S9        29.94S
WASECA         CLEAR     63  52  67 S14       29.94F
ALBERT LEA     CLEAR     64  54  68 S14G21    29.95S
$$
MNZ078>079-086>088-094>096-030600-
   Southeast Minnesota

CITY           SKY/WX    TMP DP  RH WIND       PRES   REMARKS
ROCHESTER      PTCLDY    61  51  70 S10       29.98S
RED WING       CLEAR     64  50  59 SE7       29.93F
STANTON        CLEAR     64  52  64 S9        29.92F
DODGE CENTER   PTCLDY    63  54  72 S12       29.96S
WINONA         PTCLDY    61  52  72 CALM      29.98S
AUSTIN         CLEAR     61  54  77 S9        29.96F
PRESTON        PTCLDY    57  49  74 S7        29.99S
$$
ABBREVIATIONS USED IN REMARKS
   TC - TEMPERATURES IN CELSIUS
  WCI - WIND CHILL INDEX
   HX - HEAT INDEX
  VSB - VISIBILITY
$$



USA.gov is the U.S. government's official web portal to all federal, state and local government web resources and services.